Regional Weather Roundup
Issued by NWS

Home | Current Version | Previous Version | Text Only | Print | Product List | Glossary On
Versions: 1 2 3 4 5 6 7 8 9 10 11 12 13 14 15 16 17 18 19 20 21 22 23 24 25 26 27 28 29 30 31 32 33 34 35 36 37 38 39 40 41 42 43 44 45 46 47 48 49 50
000
ASUS45 KBOU 271607
RWRCO

WEATHER ROUNDUP FOR COLORADO
NATIONAL WEATHER SERVICE DENVER/BOULDER CO
1000 AM MDT THU JUL 27 2017

NOTE: "FAIR" INDICATES FEW OR NO CLOUDS BELOW 12000 FEET WITH NO
SIGNIFICANT WEATHER AND/OR OBSTRUCTIONS TO VISIBILITY.

COZ001>005-013-030-031-271700-
...NORTHWEST COLORADO...

CITY           SKY/WX    TMP DP  RH WIND       PRES   REMARKS
CRAIG          FAIR      72  56  57 CALM      30.31F
HAYDEN         FAIR      70  52  52 E3        30.33F
MEEKER         FAIR      71  55  56 VRB3      30.32F
RABBIT EARS PA FAIR      55  50  82 W5        30.62S
STEAMBOAT SPGS FAIR      67  56  67 CALM      30.35F
WALDEN         NOT AVBL
$$

COZ006>008-011-271700-
...WEST CENTRAL VALLEYS...

CITY           SKY/WX    TMP DP  RH WIND       PRES   REMARKS
GRAND JUNCTION FAIR      79  60  52 SW3       30.19F
MONTROSE       FAIR      75  57  53 W5        30.28S
EAGLE          SUNNY     72  54  53 CALM      30.36F
RIFLE          FAIR      74  57  55 CALM      30.26F
DELTA          FAIR      78  56  46 SE5       30.24F
NUCLA          NOT AVBL
$$

COZ017>023-064>068-271700-
...SOUTHWEST COLORADO...

CITY           SKY/WX    TMP DP  RH WIND       PRES   REMARKS
DURANGO        FAIR      75  51  43 E6        30.32S
CORTEZ         FAIR      78  54  43 MISG      30.26F
PAGOSA SPRINGS FAIR      73  48  41 S9        30.41S
TELLURIDE      FAIR      67  49  52 CALM      30.51F
WOLF CREEK PAS FAIR      55  48  76 SW8       30.77S
$$

COZ009-010-012-014-032>034-037-058>063-271700-
...CENTRAL COLORADO...

CITY           SKY/WX    TMP DP  RH WIND       PRES   REMARKS
ASPEN          FAIR      71  52  50 N7        30.40F
BUENA VISTA    FAIR      65  52  62 CALM      30.44F
COPPER MTN     FAIR      59  45  58 NW6       30.73S
BERTHOUD PASS  FAIR      50  37  62 N3        30.75S
COTTONWOOD PAS FAIR      64  52  63 SE5       30.57S
GUNNISON       FAIR      66  52  60 CALM      30.43F
KREMMLING        N/A     63  55  77 CALM      30.43F
LEADVILLE      FAIR      60  48  64 CALM      30.52F
MONARCH PASS   FAIR      54  45  71 SW9       30.83R
SALIDA         FAIR      70  54  56 N5        30.47F
SUNLIGHT       FAIR      55  50  82 W5        30.66S
WILKERSON PASS FAIR      55  45  67 CALM      30.69S
$$

COZ069>075-271700-
...SAN LUIS VALLEY/SANGRE DE CRISTO MOUNTAINS...

CITY           SKY/WX    TMP DP  RH WIND       PRES   REMARKS
ALAMOSA        FAIR      68  56  65 VRB3      30.40F
DEL NORTE      FAIR      69  50  50 E3        30.44S
LA VETA PASS   NOT AVBL
SAGUACHE         N/A    N/A N/A N/A MISG        N/A
$$

COZ035-036-038>040-271700-
...NORTHERN COLORADO FRONT RANGE...

CITY           SKY/WX    TMP DP  RH WIND       PRES   REMARKS
DENVER INTL AP FAIR      74  60  61 VRB7      30.26R
DMNS CITY PARK   N/A     73  60  64 NW7G14    30.26S
AURORA         MOSUNNY   73  60  64 CALM      30.27F
FRONT RANGE AP MOSUNNY   75  63  64 SE9       30.28S
ERIE MUNI ARPT FAIR      70  60  71 CALM      30.26F
BOULDER MUN AP FAIR      70  63  78 NE5       30.27S
CENTENNIAL     FAIR      72  60  66 W6        30.28S
BROOMFIELD     FAIR      68  61  77 N9        30.29S
FORT COLLINS   PTSUNNY   69  62  78 VRB3      30.27S
LONGMONT       FAIR      75  63  65 NE6       30.27S
$$

COZ041-046-047-076>085-087-088-271700-
...PIKES PEAK/PALMER DIVIDE AND SOUTHERN FOOTHILLS...

CITY           SKY/WX    TMP DP  RH WIND       PRES   REMARKS
COLO. SPRINGS  PTSUNNY   69  60  73 SE7       30.33S
A. F. ACADEMY  MOSUNNY   66  59  77 S9        30.33F
SCHRIEVER AFB  FAIR      66  58  75 S12G18    30.33S
CHEYENNE MTN   CLOUDY    63  57  81 CALM      30.31F
ELLICOTT       FAIR     N/A N/A N/A S10       30.31F
FALCON           N/A     68  56  65 S13G20    30.38S
FORT CARSON    NOT AVBL
LIMON          PTSUNNY   70  64  81 SE12      30.28S
MONUMENT HILL  FAIR      66  55  68 S14       30.37F
CANON CITY     SUNNY     73  64  73 E6        30.27S
WALSENBURG     FAIR      77  59  53 SE5       30.30S
TRINIDAD       FAIR      69  56  62 CALM      30.30F
$$

COZ042>045-048>051-090-091-271700-
...NORTHEAST COLORADO...

CITY           SKY/WX    TMP DP  RH WIND       PRES   REMARKS
GREELEY ARPT   FAIR      73  64  73 CALM      30.25F
AKRON          PTSUNNY   73  61  65 S14G22    30.25S
BURLINGTON     CLOUDY    68  66  93 E9        30.24R
WRAY           NOT AVBL
YUMA           NOT AVBL
STERLING       CLOUDY    77  64  65 SE10      30.21S
HOLYOKE        CLOUDY    73  64  73 SE8       30.22F
FORT MORGAN    PTSUNNY   78  60  53 SE9G16    30.25S
$$

COZ086-089-092>099-271700-
...SOUTHEAST COLORADO...

CITY           SKY/WX    TMP DP  RH WIND       PRES   REMARKS
PUEBLO         FAIR      74  62  66 S7        30.23F
LA JUNTA       PTSUNNY   74  65  73 NE5       30.22S
LAMAR          PTSUNNY   74  68  81 NE6       30.17F
SPRINGFIELD      N/A     71  67  87 N10       30.22R
$$



USA.gov is the U.S. government's official web portal to all federal, state and local government web resources and services.